AWQ265 WSSS-WIII

Flight info

Callsign AWQ265
Flight time N/A
Altitude 34000
Route ANITO8B ANITO B470 BUNIK
Aircraft A320/M-SDE3FGHIRWY/LB1

Departure

Time 2026-05-07 02:59
Airport Singapore Changi Airport (WSSS)

Arrival

Time N/A
Airport Soekarno-Hatta International Airport (WIII)
Time Latitude Longitude Altitude Speed Heading
2026-05-07 02:42 1.34010 103.98551 24 ft 0 kts 293°
2026-05-07 02:45 1.34003 103.98567 24 ft 4 kts 303°
2026-05-07 02:46 1.33986 103.98586 25 ft 4 kts 338°
2026-05-07 02:46 1.33967 103.98587 24 ft 0 kts 24°
2026-05-07 02:49 1.33968 103.98588 24 ft 2 kts 24°
2026-05-07 02:49 1.33990 103.98598 24 ft 6 kts 23°
2026-05-07 02:49 1.34045 103.98621 24 ft 8 kts 22°
2026-05-07 02:49 1.34086 103.98650 24 ft 7 kts 69°
2026-05-07 02:50 1.34069 103.98715 24 ft 11 kts 112°
2026-05-07 02:50 1.34054 103.98787 24 ft 10 kts 66°
2026-05-07 02:50 1.34119 103.98822 24 ft 14 kts 22°
2026-05-07 02:50 1.34124 103.98824 24 ft 14 kts 22°
2026-05-07 02:51 1.34164 103.98841 24 ft 13 kts 22°
2026-05-07 02:51 1.34224 103.98865 24 ft 12 kts 22°
2026-05-07 02:51 1.34283 103.98890 24 ft 10 kts 23°
2026-05-07 02:52 1.34300 103.98898 24 ft 10 kts 23°
2026-05-07 02:52 1.34382 103.98933 24 ft 17 kts 23°
2026-05-07 02:52 1.34495 103.98981 24 ft 18 kts 23°
2026-05-07 02:52 1.34607 103.99028 25 ft 19 kts 23°
2026-05-07 02:53 1.34734 103.99082 24 ft 20 kts 23°
2026-05-07 02:53 1.34867 103.99138 24 ft 22 kts 23°
2026-05-07 02:53 1.35012 103.99199 24 ft 23 kts 23°
2026-05-07 02:53 1.35161 103.99263 24 ft 24 kts 23°
2026-05-07 02:54 1.35315 103.99329 24 ft 23 kts 22°
2026-05-07 02:54 1.35467 103.99390 24 ft 23 kts 22°
2026-05-07 02:54 1.35603 103.99447 24 ft 19 kts 23°
2026-05-07 02:54 1.35728 103.99500 24 ft 20 kts 23°
2026-05-07 02:55 1.35860 103.99557 25 ft 21 kts 22°
2026-05-07 02:55 1.36001 103.99616 24 ft 22 kts 23°
2026-05-07 02:55 1.36140 103.99675 26 ft 17 kts 23°
2026-05-07 02:55 1.36204 103.99702 24 ft 8 kts 23°
2026-05-07 02:56 1.36246 103.99734 24 ft 7 kts 75°
2026-05-07 02:56 1.36232 103.99788 24 ft 8 kts 113°
2026-05-07 02:56 1.36211 103.99836 24 ft 8 kts 113°
2026-05-07 02:56 1.36187 103.99878 26 ft 6 kts 145°
2026-05-07 02:57 1.36155 103.99875 24 ft 0 kts 202°
2026-05-07 02:58 1.36137 103.99867 25 ft 14 kts 202°
2026-05-07 02:58 1.35804 103.99727 26 ft 87 kts 203°
2026-05-07 02:58 1.35061 103.99412 24 ft 143 kts 202°
2026-05-07 02:59 1.34006 103.98971 94 ft 178 kts 202°
2026-05-07 02:59 1.32892 103.98504 791 ft 174 kts 201°
2026-05-07 02:59 1.31781 103.98033 1469 ft 174 kts 201°
2026-05-07 02:59 1.30650 103.97556 1970 ft 183 kts 201°
2026-05-07 03:00 1.29402 103.97032 2183 ft 206 kts 201°
2026-05-07 03:00 1.28002 103.96440 2394 ft 230 kts 202°
2026-05-07 03:00 1.26451 103.95782 2694 ft 254 kts 201°
2026-05-07 03:00 1.24773 103.95077 3216 ft 266 kts 202°
2026-05-07 03:01 1.22987 103.94567 3945 ft 270 kts 182°
2026-05-07 03:01 1.21128 103.94813 4706 ft 272 kts 165°
2026-05-07 03:01 1.19282 103.95266 5494 ft 274 kts 165°
2026-05-07 03:01 1.17416 103.95734 6258 ft 278 kts 165°
2026-05-07 03:02 1.15532 103.96208 7017 ft 280 kts 165°
2026-05-07 03:02 1.14276 103.96522 7484 ft 283 kts 166°
2026-05-07 03:02 1.12352 103.97002 8183 ft 287 kts 166°
2026-05-07 03:02 1.10476 103.97704 8852 ft 291 kts 149°
2026-05-07 03:03 1.08827 103.98896 9532 ft 294 kts 142°
2026-05-07 03:03 1.07204 104.00154 10211 ft 298 kts 142°
2026-05-07 03:03 1.05506 104.01468 10390 ft 319 kts 142°
2026-05-07 03:03 1.03790 104.02981 10548 ft 339 kts 131°
2026-05-07 03:04 1.02369 104.04894 11023 ft 346 kts 120°
2026-05-07 03:04 1.01335 104.07077 11612 ft 350 kts 112°
2026-05-07 03:04 1.00387 104.09320 12262 ft 352 kts 112°
2026-05-07 03:04 0.99427 104.11581 12925 ft 355 kts 112°
2026-05-07 03:05 0.98458 104.13856 13607 ft 357 kts 112°
2026-05-07 03:05 0.97483 104.16152 14231 ft 361 kts 112°
2026-05-07 03:05 0.96504 104.18471 14788 ft 364 kts 112°
2026-05-07 03:05 0.95519 104.20811 15328 ft 367 kts 112°
2026-05-07 03:06 0.94431 104.23130 15837 ft 371 kts 119°
2026-05-07 03:06 0.93069 104.25331 16370 ft 374 kts 121°
2026-05-07 03:06 0.91686 104.27542 16862 ft 376 kts 121°
2026-05-07 03:06 0.90294 104.29773 17354 ft 380 kts 121°
2026-05-07 03:07 0.88892 104.32022 17855 ft 382 kts 121°
2026-05-07 03:07 0.87486 104.34284 18354 ft 385 kts 121°
2026-05-07 03:07 0.86069 104.36563 18850 ft 388 kts 121°
2026-05-07 03:07 0.84660 104.38829 19310 ft 390 kts 121°
2026-05-07 03:08 0.83221 104.41138 19804 ft 393 kts 121°
2026-05-07 03:08 0.81740 104.43489 20252 ft 396 kts 122°
2026-05-07 03:08 0.80220 104.45749 20687 ft 398 kts 124°
2026-05-07 03:08 0.78616 104.48013 21117 ft 401 kts 125°
2026-05-07 03:09 0.76970 104.50273 21538 ft 404 kts 125°
2026-05-07 03:09 0.75310 104.52546 21966 ft 406 kts 126°
2026-05-07 03:09 0.73460 104.54694 22367 ft 410 kts 135°
2026-05-07 03:09 0.71225 104.56475 22743 ft 414 kts 146°
2026-05-07 03:10 0.68666 104.57816 23114 ft 418 kts 157°
2026-05-07 03:10 0.65892 104.58713 23465 ft 421 kts 162°
2026-05-07 03:10 0.63075 104.59544 23800 ft 423 kts 162°
2026-05-07 03:10 0.60248 104.60379 24130 ft 425 kts 162°
2026-05-07 03:11 0.57402 104.61223 24449 ft 427 kts 162°
2026-05-07 03:11 0.54544 104.62073 24775 ft 430 kts 162°
2026-05-07 03:11 0.51676 104.62927 25114 ft 431 kts 162°
2026-05-07 03:11 0.48797 104.63784 25408 ft 433 kts 162°
2026-05-07 03:12 0.45902 104.64647 25678 ft 435 kts 162°
2026-05-07 03:12 0.42999 104.65511 25963 ft 437 kts 162°
2026-05-07 03:12 0.40074 104.66376 26239 ft 439 kts 162°
2026-05-07 03:12 0.37145 104.67240 26502 ft 440 kts 162°
2026-05-07 03:13 0.34195 104.68112 26763 ft 443 kts 162°
2026-05-07 03:13 0.31238 104.68985 27022 ft 444 kts 162°
2026-05-07 03:13 0.28270 104.69863 27263 ft 446 kts 162°
2026-05-07 03:13 0.25295 104.70743 27507 ft 447 kts 162°
2026-05-07 03:14 0.22305 104.71628 27742 ft 449 kts 161°
2026-05-07 03:14 0.19304 104.72517 27971 ft 450 kts 161°
2026-05-07 03:14 0.13276 104.74309 28408 ft 453 kts 161°
2026-05-07 03:15 0.10249 104.75212 28627 ft 455 kts 161°
2026-05-07 03:15 0.07252 104.76103 28834 ft 457 kts 161°
2026-05-07 03:15 0.04201 104.77010 29041 ft 458 kts 161°
2026-05-07 03:15 0.01140 104.77918 29258 ft 459 kts 161°
2026-05-07 03:16 -0.01931 104.78825 29451 ft 461 kts 161°
2026-05-07 03:16 -0.05011 104.79735 29653 ft 462 kts 162°
2026-05-07 03:16 -0.08100 104.80652 29830 ft 463 kts 162°
2026-05-07 03:16 -0.11194 104.81570 30011 ft 465 kts 162°
2026-05-07 03:17 -0.14296 104.82492 30193 ft 466 kts 162°
2026-05-07 03:17 -0.17406 104.83416 30366 ft 467 kts 162°
2026-05-07 03:17 -0.20526 104.84343 30522 ft 468 kts 162°
2026-05-07 03:17 -0.23648 104.85271 30730 ft 468 kts 162°
2026-05-07 03:18 -0.26745 104.86247 30972 ft 466 kts 157°
2026-05-07 03:18 -0.29668 104.87624 31194 ft 464 kts 148°
2026-05-07 03:18 -0.32364 104.89380 31404 ft 462 kts 144°
2026-05-07 03:18 -0.35023 104.91188 31626 ft 462 kts 144°
2026-05-07 03:19 -0.37674 104.92990 31847 ft 461 kts 144°
2026-05-07 03:19 -0.40329 104.94792 32056 ft 461 kts 144°
2026-05-07 03:19 -0.42984 104.96589 32290 ft 460 kts 144°
2026-05-07 03:19 -0.45635 104.98380 32520 ft 460 kts 145°
2026-05-07 03:20 -0.48284 105.00169 32721 ft 460 kts 145°
2026-05-07 03:20 -0.50931 105.01959 32960 ft 459 kts 145°
2026-05-07 03:20 -0.53573 105.03744 33191 ft 459 kts 145°
2026-05-07 03:20 -0.56217 105.05528 33390 ft 458 kts 145°
2026-05-07 03:21 -0.58859 105.07309 33633 ft 458 kts 145°
2026-05-07 03:21 -0.61494 105.09090 33851 ft 457 kts 145°
2026-05-07 03:21 -0.64124 105.10875 34067 ft 457 kts 145°
2026-05-07 03:21 -0.66756 105.12660 34286 ft 457 kts 145°
2026-05-07 03:22 -0.69386 105.14440 34501 ft 456 kts 145°
2026-05-07 03:22 -0.72012 105.16215 34699 ft 456 kts 145°
2026-05-07 03:22 -0.74638 105.17991 34868 ft 456 kts 145°
2026-05-07 03:23 -0.79824 105.21501 34905 ft 451 kts 145°
2026-05-07 03:23 -0.85017 105.25010 34907 ft 450 kts 145°
2026-05-07 03:24 -0.90216 105.28531 34900 ft 452 kts 145°
2026-05-07 03:24 -0.95419 105.32057 34898 ft 452 kts 145°
2026-05-07 03:25 -1.00625 105.35586 34899 ft 452 kts 145°
2026-05-07 03:25 -1.05838 105.39115 34904 ft 453 kts 145°
2026-05-07 03:26 -1.11050 105.42644 34905 ft 452 kts 144°
2026-05-07 03:26 -1.16255 105.46164 34902 ft 451 kts 145°
2026-05-07 03:27 -1.21450 105.49672 34897 ft 451 kts 145°
2026-05-07 03:27 -1.26645 105.53190 34897 ft 451 kts 144°
2026-05-07 03:28 -1.31843 105.56709 34894 ft 451 kts 144°
2026-05-07 03:28 -1.37036 105.60231 34891 ft 451 kts 144°
2026-05-07 03:29 -1.42220 105.63750 34892 ft 451 kts 144°
2026-05-07 03:29 -1.47416 105.67268 34891 ft 451 kts 144°
2026-05-07 03:30 -1.52614 105.70778 34893 ft 451 kts 144°
2026-05-07 03:30 -1.57813 105.74293 34890 ft 451 kts 144°
2026-05-07 03:31 -1.63003 105.77806 34890 ft 451 kts 144°
2026-05-07 03:31 -1.68200 105.81330 34894 ft 452 kts 144°
2026-05-07 03:32 -1.73401 105.84860 34900 ft 452 kts 144°
2026-05-07 03:32 -1.78602 105.88375 34901 ft 451 kts 144°
2026-05-07 03:33 -1.83770 105.91871 34900 ft 452 kts 144°
2026-05-07 03:33 -1.88973 105.95393 34899 ft 452 kts 144°
2026-05-07 03:34 -1.94171 105.98920 34899 ft 451 kts 144°
2026-05-07 03:34 -1.99360 106.02442 34893 ft 450 kts 144°
2026-05-07 03:35 -2.04548 106.05958 34896 ft 451 kts 144°
2026-05-07 03:35 -2.09752 106.09475 34904 ft 451 kts 144°
2026-05-07 03:36 -2.15008 106.12911 34902 ft 452 kts 151°
2026-05-07 03:36 -2.20962 106.14940 34903 ft 455 kts 169°
2026-05-07 03:37 -2.27208 106.16001 34897 ft 455 kts 169°
2026-05-07 03:37 -2.33453 106.17066 34896 ft 455 kts 169°
2026-05-07 03:38 -2.39694 106.18140 34895 ft 455 kts 169°
2026-05-07 03:38 -2.45930 106.19210 34894 ft 455 kts 169°
2026-05-07 03:39 -2.52166 106.20273 34893 ft 455 kts 169°
2026-05-07 03:39 -2.58411 106.21345 34896 ft 455 kts 169°
2026-05-07 03:40 -2.64651 106.22406 34897 ft 455 kts 169°
2026-05-07 03:40 -2.70894 106.23467 34896 ft 455 kts 169°
2026-05-07 03:41 -2.77130 106.24534 34897 ft 454 kts 169°
2026-05-07 03:41 -2.83360 106.25601 34890 ft 454 kts 169°
2026-05-07 03:42 -2.89581 106.26667 34888 ft 454 kts 169°
2026-05-07 03:42 -2.95765 106.27731 34888 ft 454 kts 169°
2026-05-07 03:43 -3.01998 106.28803 34896 ft 455 kts 169°
2026-05-07 03:43 -3.08235 106.29874 34898 ft 455 kts 169°
2026-05-07 03:44 -3.14469 106.30934 34898 ft 454 kts 169°
2026-05-07 03:44 -3.20692 106.31998 34898 ft 454 kts 169°
2026-05-07 03:45 -3.26919 106.33061 34898 ft 454 kts 169°
2026-05-07 03:45 -3.33123 106.34122 34896 ft 454 kts 169°
2026-05-07 03:46 -3.39203 106.35167 34897 ft 454 kts 169°
2026-05-07 03:46 -3.45434 106.36241 34900 ft 454 kts 169°
2026-05-07 03:47 -3.51662 106.37308 34900 ft 454 kts 169°
2026-05-07 03:47 -3.57889 106.38378 34901 ft 454 kts 169°
2026-05-07 03:48 -3.64113 106.39446 34899 ft 453 kts 169°
2026-05-07 03:48 -3.70317 106.40587 34901 ft 454 kts 168°
2026-05-07 03:49 -3.76524 106.41773 34901 ft 454 kts 168°
2026-05-07 03:49 -3.82729 106.42960 34903 ft 454 kts 168°
2026-05-07 03:50 -3.87882 106.43929 34901 ft 454 kts 168°
2026-05-07 03:50 -3.94091 106.45083 34902 ft 453 kts 169°
2026-05-07 03:51 -4.00295 106.46241 34897 ft 454 kts 168°
2026-05-07 03:51 -4.07516 106.47592 34896 ft 454 kts 168°
2026-05-07 03:52 -4.12712 106.48564 34895 ft 454 kts 169°
2026-05-07 03:52 -4.18918 106.49724 34899 ft 453 kts 168°
2026-05-07 03:53 -4.25115 106.50891 34899 ft 453 kts 169°
2026-05-07 03:53 -4.31267 106.52044 34893 ft 453 kts 169°
2026-05-07 03:54 -4.37466 106.53198 34890 ft 453 kts 169°
2026-05-07 03:54 -4.43664 106.54358 34891 ft 453 kts 169°
2026-05-07 03:55 -4.49856 106.55525 34889 ft 453 kts 169°
2026-05-07 03:55 -4.56056 106.56692 34888 ft 453 kts 169°
2026-05-07 03:56 -4.62252 106.57858 34890 ft 453 kts 169°
2026-05-07 03:56 -4.68458 106.59020 34891 ft 453 kts 169°
2026-05-07 03:57 -4.74675 106.60182 34638 ft 457 kts 169°
2026-05-07 03:57 -4.77793 106.60765 34081 ft 454 kts 169°
2026-05-07 03:57 -4.80887 106.61343 33551 ft 449 kts 168°
2026-05-07 03:57 -4.83948 106.61916 33024 ft 445 kts 167°
2026-05-07 03:58 -4.86912 106.62728 32496 ft 440 kts 159°
2026-05-07 03:58 -4.89702 106.63936 31971 ft 435 kts 155°
2026-05-07 03:58 -4.92453 106.65192 31444 ft 433 kts 154°
2026-05-07 03:58 -4.95187 106.66441 30897 ft 430 kts 154°
2026-05-07 03:59 -4.97898 106.67680 30368 ft 427 kts 154°
2026-05-07 03:59 -5.00594 106.68914 29831 ft 424 kts 154°
2026-05-07 03:59 -5.03267 106.70140 29314 ft 421 kts 154°
2026-05-07 03:59 -5.05921 106.71355 28787 ft 418 kts 154°
2026-05-07 04:00 -5.08561 106.72564 28283 ft 415 kts 154°
2026-05-07 04:00 -5.11179 106.73763 27774 ft 412 kts 154°
2026-05-07 04:00 -5.13780 106.74952 27291 ft 409 kts 154°
2026-05-07 04:00 -5.16359 106.76129 26810 ft 405 kts 154°
2026-05-07 04:01 -5.18919 106.77298 26340 ft 402 kts 154°
2026-05-07 04:01 -5.21456 106.78452 25871 ft 400 kts 154°
2026-05-07 04:01 -5.23984 106.79596 25401 ft 397 kts 154°
2026-05-07 04:01 -5.26492 106.80728 24936 ft 394 kts 154°
2026-05-07 04:02 -5.28986 106.81855 24464 ft 392 kts 154°
2026-05-07 04:02 -5.31467 106.82976 23993 ft 390 kts 154°
2026-05-07 04:02 -5.33934 106.84091 23507 ft 388 kts 154°
2026-05-07 04:02 -5.36387 106.85198 23034 ft 386 kts 154°
2026-05-07 04:03 -5.38830 106.86301 22544 ft 384 kts 154°
2026-05-07 04:03 -5.41265 106.87407 22058 ft 383 kts 154°
2026-05-07 04:03 -5.43691 106.88481 21573 ft 381 kts 159°
2026-05-07 04:03 -5.46260 106.89123 21090 ft 381 kts 172°
2026-05-07 04:04 -5.48868 106.89147 20671 ft 379 kts 186°
2026-05-07 04:04 -5.51438 106.88586 20139 ft 381 kts 199°
2026-05-07 04:04 -5.53920 106.87623 19785 ft 373 kts 200°
2026-05-07 04:04 -5.56330 106.86685 19118 ft 370 kts 200°
2026-05-07 04:05 -5.58693 106.85773 18599 ft 368 kts 199°
2026-05-07 04:05 -5.61076 106.84858 18186 ft 364 kts 199°
2026-05-07 04:05 -5.63427 106.83956 17627 ft 360 kts 199°
2026-05-07 04:05 -5.65755 106.83061 17144 ft 358 kts 199°
2026-05-07 04:06 -5.68085 106.82166 16702 ft 357 kts 199°
2026-05-07 04:06 -5.70388 106.81281 16217 ft 353 kts 199°
2026-05-07 04:06 -5.72664 106.80403 15722 ft 348 kts 199°
2026-05-07 04:06 -5.74929 106.79531 15257 ft 349 kts 199°
2026-05-07 04:07 -5.77200 106.78657 14832 ft 348 kts 199°
2026-05-07 04:07 -5.79440 106.77791 14355 ft 344 kts 200°
2026-05-07 04:07 -5.81661 106.76933 13874 ft 340 kts 200°
2026-05-07 04:07 -5.83836 106.76039 13420 ft 337 kts 206°
2026-05-07 04:08 -5.85764 106.74720 12972 ft 336 kts 221°
2026-05-07 04:08 -5.87297 106.72944 12455 ft 339 kts 237°
2026-05-07 04:08 -5.88337 106.70823 12021 ft 338 kts 249°
2026-05-07 04:08 -5.89203 106.68617 11499 ft 339 kts 248°
2026-05-07 04:09 -5.90073 106.66442 11073 ft 333 kts 248°
2026-05-07 04:09 -5.90940 106.64287 10430 ft 332 kts 247°
2026-05-07 04:09 -5.91802 106.62146 10171 ft 325 kts 247°
2026-05-07 04:09 -5.92632 106.60081 10035 ft 314 kts 247°
2026-05-07 04:10 -5.93436 106.58077 9871 ft 305 kts 247°
2026-05-07 04:10 -5.94226 106.56122 9667 ft 299 kts 247°
2026-05-07 04:10 -5.95014 106.54189 9485 ft 299 kts 246°
2026-05-07 04:10 -5.95801 106.52264 9244 ft 297 kts 246°